Location: Cherryland
(37.6794°N, 122.1033°W)
Time: 23:58:53
(UTC+00:00)

Cosmos 2278 - Pass Details

Date: 14 December 2025
Orbit: 840 x 849 km, 71.1° (Epoch: 14 January)

Event Time Altitude Azimuth Distance (km) Brightness Sun altitude
Exits shadow 13:01:25 52° 345° (NNW) 1,039 3.9 -25.8°
Maximum altitude 13:02:53 85° 68° (ENE) 848 3.6 -25.5°
Drops below altitude 10° 13:08:31 10° 157° (SSE) 2,446 6.5 -24.4°
Sets 13:10:56 0° 158° (SSE) 3,376 7.3 -23.9°
